Regional Weather Roundup
Issued by NWS Albany, NY

Home | Current Version | Previous Version | Graphics & Text | Print | Product List | Glossary Off
Versions: 1 2 3 4 5 6 7 8 9 10 11 12 13 14 15 16 17 18 19 20 21 22 23 24 25 26 27 28 29 30 31 32 33 34 35 36 37 38 39 40 41 42 43 44 45 46 47 48

000
ASUS41 KALY 050210
RWRALY

NEW YORK STATE HOURLY WEATHER ROUNDUP
NATIONAL WEATHER SERVICE ALBANY NY
1000 PM EDT FRI SEP 04 2015

NOTE: "FAIR" INDICATES FEW OR NO CLOUDS BELOW 12,000 FEET WITH NO
SIGNIFICANT WEATHER AND/OR NO OBSTRUCTIONS TO VISIBILITY.

NYZ032-033-038>043-046>054-057>066-NYZ062>081-050300-
EAST


CITY           SKY/WX    TMP DP  RH WIND       PRES   REMARKS
ALBANY         PTCLDY    73  57  57 SE5       30.20R
GLENS FALLS    CLEAR     66  61  84 CALM      30.21R
POUGHKEEPSIE   PTCLDY    75  62  64 E7        30.19R
NEWBURGH       PTCLDY    77  66  69 E9        30.21
MONTGOMERY     MOCLDY    70  67  90 CALM      30.20R
WHITE PLAINS   CLEAR     70  62  76 E3        30.20R
ISLIP          CLEAR     70  62  76 E13       30.19R
NEW YORK CITY  PTCLDY    75  61  61 SE12      30.18R
CENTRAL PARK   CLEAR     76  61  59 VRB3      30.22R
$$

NYZ005>009-017-018-044>046-055-056-050300-
CENTRAL


CITY           SKY/WX    TMP DP  RH WIND       PRES   REMARKS
FULTON         CLEAR     70  60  70 E3        30.15R
SYRACUSE       PTCLDY    72  65  78 E3        30.15R
ROME           CLEAR     72  64  76 E6        30.19R
ELMIRA         CLEAR     73  67  81 CALM      30.16R
BINGHAMTON     MOCLDY    71  65  81 SE9       30.21R
MONTICELLO     CLOUDY    68  66  94 E3        30.25R
$$

NYZ026>034-041>043-050300-
NORTH


CITY           SKY/WX    TMP DP  RH WIND       PRES   REMARKS
WATERTOWN      CLEAR     65  58  78 NE6       30.17R
FORT DRUM      NOT AVBL
MASSENA        CLEAR     61  52  72 E3        30.23R
SARANAC LAKE   CLEAR     62  54  74 NE7       30.25R
PLATTSBURGH    CLEAR     66  55  67 NW7       30.22R
$$

NYZ001>004-010>016-019>021-050300-
WEST


CITY           SKY/WX    TMP DP  RH WIND       PRES   REMARKS
NIAGARA FALLS  CLEAR     70  58  65 E8        30.13R
BUFFALO        PTCLDY    71  60  68 E7        30.14R
DUNKIRK        MOCLDY    73  67  81 S9        30.15R THUNDER
JAMESTOWN      MOCLDY    66  63  88 CALM      30.19S
WELLSVILLE     PTCLDY    71  62  73 E3        30.23R
ROCHESTER      CLEAR     71  61  70 E7        30.16R
PENN YAN       CLEAR     67  63  87 CALM      30.17R
$$

             KEY
       WCI = WIND CHILL INDEX
       VSB = VISIBILITY
       HX  = HEAT INDEX
$$


USA.gov is the U.S. government's official web portal to all federal, state and local government web resources and services.